Date,TemperatureHighF,TemperatureAvgF,TemperatureLowF,DewpointHighF,DewpointAvgF,DewpointLowF,HumidityHigh,HumidityAvg,HumidityLow,PressureMaxIn,PressureMinIn,WindSpeedMaxMPH,WindSpeedAvgMPH,GustSpeedMaxMPH,PrecipitationSumIn
2013-7-1,98,74,57,61,53,47,79,53,19,29.88,29.72,33,4,35,0.02
2013-7-2,100,73,58,65,56,49,82,59,22,29.94,29.77,33,2,36,0.00
2013-7-3,98,72,51,61,54,47,89,59,25,29.97,29.73,14,1,14,0.00
2013-7-4,92,74,55,68,56,49,84,56,27,29.80,29.58,27,3,27,0.06
2013-7-5,89,73,53,60,47,31,85,46,17,29.63,29.51,33,7,34,0.00
2013-7-6,87,68,43,52,41,30,75,40,18,29.68,29.57,39,5,41,0.00
2013-7-7,88,73,48,50,41,34,72,36,19,29.73,29.63,35,5,35,0.00
2013-7-8,88,73,50,50,41,33,67,34,17,29.87,29.71,23,4,24,0.00
2013-7-9,90,70,45,49,42,35,73,39,17,29.97,29.85,23,4,27,0.00
2013-7-10,88,70,42,51,42,34,76,39,22,29.95,29.80,32,5,33,0.00
2013-7-11,84,75,56,52,43,29,48,32,21,29.81,29.62,30,6,30,0.00
2013-7-12,86,66,40,47,39,30,75,41,20,29.85,29.71,25,3,28,0.00
2013-7-13,86,66,39,46,39,30,75,43,18,29.92,29.79,21,4,23,0.00
2013-7-14,90,68,43,49,43,37,81,46,20,29.97,29.77,26,3,26,0.00
2013-7-15,90,70,47,52,46,40,80,47,22,29.83,29.59,22,2,23,0.00
2013-7-16,85,70,48,50,43,30,81,43,15,29.84,29.66,25,3,25,0.00
2013-7-17,90,67,37,48,40,29,77,42,17,30.01,29.84,21,2,22,0.00
2013-7-18,96,71,41,54,45,36,84,47,14,29.99,29.76,18,2,18,0.00
2013-7-19,99,74,47,54,47,40,81,45,16,29.87,29.65,18,2,19,0.00
2013-7-20,102,75,49,55,48,40,76,43,15,29.76,29.58,27,2,27,0.00
2013-7-21,99,79,52,58,50,44,80,42,17,29.70,29.57,26,4,26,0.00
2013-7-22,97,76,51,57,50,42,74,43,19,29.85,29.61,25,2,25,0.18
2013-7-23,90,72,58,60,54,49,84,55,29,29.85,29.75,17,2,17,0.00
2013-7-24,75,60,52,56,50,46,83,71,45,29.89,29.83,11,1,11,0.00
2013-7-25,60,60,60,57,56,56,89,88,85,30.00,29.98,4,1,4,0.04
2013-7-26,88,66,50,59,53,48,93,68,30,30.03,29.86,24,2,24,0.00
2013-7-27,78,56,48,54,47,43,86,74,44,29.94,29.88,7,1,7,0.00
2013-7-28,85,76,58,50,47,44,62,37,27,29.71,29.62,27,5,35,0.00
2013-7-29,84,57,44,50,43,37,78,61,25,29.79,29.71,19,1,19,0.00